Pella Municipal Airport
Tuesday 11:35 PM
Temperature57° (77°/50°)
Dew Point52°
Relative Humidity84
%
Visibility10
mi
Pressure1020.3
mb
Wind Direction
Wind SpeedCalm
Precipitation Today0.00"

Last 30 Observations

Time PresWx Temp DP Feels RH% Vsby Pressure Ceiling Direction Speed 1h Precip
11:15 PM 58° 53° 82
%
7
mi
1020.3
mb
Calm 0.00"
10:55 PM 57° 53° 85
%
10
mi
1020.3
mb
Calm 0.00"
10:35 PM 59° 53° 80
%
10
mi
1020.3
mb
Calm 0.00"
10:15 PM 58° 53° 82
%
10
mi
1020.0
mb
Calm 0.00"
9:55 PM 60° 53° 79
%
10
mi
1019.7
mb
Calm 0.00"
9:35 PM 60° 54° 80
%
10
mi
1019.7
mb
Calm 0.00"
9:15 PM 60° 54° 80
%
10
mi
1019.7
mb
Calm 0.00"
8:55 PM 62° 55° 77
%
10
mi
1019.7
mb
Calm 0.00"
8:35 PM 64° 54° 72
%
10
mi
1019.3
mb
Calm 0.00"
8:15 PM 66° 56° 71
%
10
mi
1019.3
mb
Calm 0.00"
7:55 PM 70° 52° 69°53
%
10
mi
1019.3
mb
Calm 0.00"
7:35 PM 73° 51° 72°45
%
10
mi
1019.3
mb
Calm 0.00"
7:15 PM 74° 50° 73°43
%
10
mi
1019.7
mb
Calm 0.00"
6:55 PM 75° 49° 74°40
%
10
mi
1019.7
mb
Calm 0.00"
6:35 PM 74° 47° 73°39
%
10
mi
1019.7
mb
Calm 0.00"
6:15 PM 76° 48° 75°38
%
10
mi
1020.0
mb
Calm 0.00"
5:55 PM 76° 50° 75°40
%
10
mi
1020.0
mb
SW
220°
5
mph
0.00"
5:35 PM 76° 49° 75°39
%
10
mi
1020.0
mb
Calm 0.00"
5:15 PM 71° 50° 70°47
%
10
mi
1020.0
mb
Calm 0.00"
4:55 PM 72° 51° 71°48
%
10
mi
1020.3
mb
Calm 0.00"
4:35 PM 73° 49° 72°41
%
10
mi
1020.3
mb
Calm 0.00"
4:15 PM 75° 47° 74°36
%
10
mi
1020.7
mb
S
170°
3
mph
0.00"
3:55 PM 75° 48° 74°38
%
10
mi
1020.7
mb
Calm 0.00"
3:35 PM 73° 49° 72°43
%
10
mi
1021.0
mb
N
360°
3
mph
0.00"
3:15 PM 73° 48° 72°41
%
10
mi
1021.0
mb
Calm 0.00"
2:55 PM 76° 49° 75°39
%
10
mi
1021.0
mb
E
80°
5
mph
0.00"
2:35 PM 75° 50° 74°41
%
10
mi
1021.0
mb
N
350°
5
mph
0.00"
2:15 PM 74° 48° 73°39
%
10
mi
1021.3
mb
Calm 0.00"
1:55 PM 71° 50° 70°48
%
10
mi
1021.3
mb
Calm 0.00"
1:35 PM 73° 48° 72°42
%
10
mi
1021.3
mb
Calm 0.00"